EDT,Max TemperatureF,Mean TemperatureF,Min TemperatureF,Max Dew PointF,MeanDew PointF,Min DewpointF,Max Humidity, Mean Humidity, Min Humidity, Max Sea Level PressureIn, Mean Sea Level PressureIn, Min Sea Level PressureIn, Max VisibilityMiles, Mean VisibilityMiles, Min VisibilityMiles, Max Wind SpeedMPH, Mean Wind SpeedMPH, Max Gust SpeedMPH,PrecipitationIn, CloudCover, Events, WindDirDegrees
2013-10-1,73,63,52,61,58,49,90,79,68,29.99,29.95,29.91,10,8,4,20,10,25,0.00,4,,204
2013-10-2,79,65,51,60,48,36,97,59,21,30.12,30.05,29.94,10,8,5,8,3,10,0.00,1,,280
2013-10-3,80,66,52,66,57,44,87,75,62,30.05,29.97,29.92,10,10,5,20,6,24,0.03,4,,167
2013-10-4,78,72,65,66,64,62,90,76,62,30.03,29.98,29.92,10,9,5,14,6,17,0.06,7,Rain,211
2013-10-5,77,71,65,68,65,63,93,83,73,30.05,29.95,29.80,10,7,1,16,8,21,1.72,8,Rain-Thunderstorm,118
2013-10-6,70,60,50,66,57,46,90,81,72,29.81,29.74,29.70,10,8,2,17,9,21,0.20,7,Rain,226
2013-10-7,62,54,46,52,46,42,93,72,51,30.12,29.83,29.70,10,9,2,21,10,28,0.14,6,Rain,236
2013-10-8,72,58,43,49,45,40,89,67,44,30.25,30.21,30.12,10,10,10,20,8,23,0.00,0,,158
2013-10-9,71,59,46,48,45,43,93,65,37,30.32,30.25,30.20,10,10,8,12,5,16,0.00,0,,138
2013-10-10,73,58,43,50,45,40,89,64,38,30.23,30.19,30.13,10,10,6,10,3,18,0.00,1,,105
2013-10-11,71,57,42,50,45,39,89,63,37,30.17,30.11,30.06,10,10,10,12,5,18,0.00,1,,111
2013-10-12,78,64,49,61,53,44,93,66,39,30.11,30.06,30.00,10,8,2,17,8,22,0.13,4,Rain,194
2013-10-13,64,54,44,55,45,40,89,69,48,30.40,30.29,30.13,10,10,10,17,6,22,0.00,1,,290
2013-10-14,62,51,40,43,38,34,92,63,34,30.45,30.37,30.27,10,10,10,14,5,16,0.00,1,,72
2013-10-15,65,54,43,59,51,39,90,79,67,30.25,29.97,29.80,10,8,2,20,10,25,0.29,7,Rain,152
2013-10-16,59,55,50,54,49,45,96,84,71,29.89,29.85,29.80,10,7,1,20,9,25,0.29,7,Rain,228
2013-10-17,52,48,43,50,47,41,89,86,82,29.90,29.84,29.73,10,7,1,20,7,25,0.30,8,Rain,331
2013-10-18,61,51,40,47,42,37,92,72,51,29.91,29.87,29.85,10,9,4,28,10,33,T,5,Rain,219
2013-10-19,53,47,40,41,39,31,89,67,44,29.88,29.82,29.75,10,9,2,21,7,25,0.30,7,Rain-Thunderstorm,230
2013-10-20,58,48,37,46,40,34,93,70,47,29.90,29.83,29.74,10,10,4,24,9,33,0.12,7,Rain,194
2013-10-21,54,48,41,48,39,24,89,70,51,29.90,29.83,29.78,10,10,4,23,13,35,0.20,8,Rain,244
2013-10-22,50,43,35,33,29,24,82,66,49,29.92,29.90,29.89,10,10,10,21,11,25,T,6,Rain,258
2013-10-23,48,41,34,33,31,25,89,67,45,29.97,29.91,29.85,10,10,10,17,7,22,T,6,,299
2013-10-24,47,41,34,36,32,28,96,79,62,30.22,30.07,29.94,10,10,7,21,8,29,0.02,6,Rain,263
2013-10-25,49,40,31,34,30,26,96,71,45,30.35,30.24,30.02,10,10,10,22,11,29,T,5,Rain,234
2013-10-26,55,48,41,39,33,29,76,60,44,30.04,29.88,29.77,10,10,7,32,15,43,0.10,7,Rain,261
2013-10-27,53,45,37,33,31,28,82,63,44,30.06,30.02,29.98,10,10,10,22,8,31,0.00,5,,231
2013-10-28,48,40,32,36,32,29,85,73,60,30.43,30.28,30.06,10,10,10,18,8,21,0.00,5,,62
2013-10-29,51,44,36,36,31,27,82,68,54,30.45,30.37,30.24,10,10,10,14,8,17,0.00,7,,79
2013-10-30,64,49,34,55,43,32,93,73,52,30.23,30.08,29.89,10,7,2,24,7,30,0.34,7,Rain,132
2013-10-31,63,59,55,61,58,53,93,90,86,29.86,29.53,29.11,10,5,2,25,12,32,1.21,8,Rain,188